#timestamp,LO_Frequency,Hit,StdDev 
1701129615.6,286047002.7,N
1701129635.4,286047002.2,N
1701129655.3,286047002.1,N
1701129675.1,286047000.9,N
1701129695.8,286047000.9,N
1701129715.7,286047001.0,N
1701129735.5,286047002.1,N
1701129755.4,286047001.9,N
1701129775.2,286047002.3,N
1701129795.0,286047000.3,N
1701129795.9,286047000.3,N
1701129815.8,286046998.5,N
1701129835.6,286047000.0,N
1701129855.4,286047002.2,N
1701129875.3,286047002.3,N
1701129895.1,286047001.7,N
1701129915.9,286047001.3,N
1701129935.7,286047003.9,Y
1701129955.5,286047002.4,P
1701129975.4,286047002.3,P
1701129995.2,286046999.7,N
1701130015.1,286046999.8,N
1701130016.0,286046999.8,N
1701130035.8,286046999.9,N
1701130055.6,286046999.9,N
1701130075.5,286047001.2,N
1701130095.3,286047000.7,N
1701130115.1,286047000.8,N
1701130135.9,286046998.6,N
1701130155.7,286046998.3,N
1701130175.6,286047000.9,N
1701130195.4,286047001.2,N
1701130215.2,286046998.3,N
1701130235.1,286046998.4,N
1701130236.0,286046998.4,N
1701130255.8,286047001.0,N
1701130275.6,286047000.3,N
1701130295.5,286047002.1,N
1701130315.3,286047003.8,N
1701130335.2,286047003.8,N
1701130355.9,286047003.5,N
1701130375.7,286047003.9,N
1701130395.6,286047001.4,N
1701130415.4,286047002.5,N
1701130435.3,286046999.8,N
1701130455.1,286047002.3,N
1701130456.0,286047002.3,N
1701130475.8,286046999.7,N
1701130495.7,286046999.8,N
1701130515.5,286047002.6,N
1701130535.4,286047002.3,N
1701130555.2,286046999.7,N
1701130575.0,286047000.5,N
1701130575.9,286047000.5,N
1701130595.8,286046998.7,N
1701130615.6,286046998.3,N
1701130635.4,286047000.8,N
1701130655.3,286046999.8,N
1701130675.1,286047000.2,N
1701130695.9,286047002.8,N
1701130715.7,286047000.0,N
1701130735.5,286047000.2,N
1701130755.4,286047000.8,N
1701130775.2,286047000.7,N
1701130795.1,286047001.1,N
1701130796.0,286047001.1,N
1701130815.8,286046998.4,N
1701130835.6,286046998.8,N
1701130855.5,286047001.1,N
1701130875.3,286047002.8,N
1701130895.1,286047002.4,N
1701130915.9,286047002.1,N
1701130935.7,286047002.1,N
1701130955.6,286047000.0,N
1701130975.4,286047002.4,N
1701130995.2,286047002.4,N
1701131015.1,286046999.8,N
1701131016.0,286046999.8,N
1701131035.8,286047002.2,N
1701131055.6,286047000.1,N
1701131075.5,286047002.8,N
1701131095.3,286047000.6,N
1701131115.2,286047000.0,N
1701131135.9,286047000.1,N
1701131155.7,286046999.7,N
1701131175.6,286047001.9,N
1701131195.4,286047001.5,N
1701131215.2,286047001.7,N
1701131235.1,286047001.6,N
1701131236.0,286047001.6,N
1701131255.8,286047002.0,N
1701131275.7,286047001.7,N
1701131295.5,286047001.9,N
1701131315.3,286047002.5,N
1701131335.2,286047001.6,N
1701131355.0,286047002.3,N
1701131355.9,286047002.3,N
1701131375.8,286047004.0,Y
1701131395.6,286047002.7,P
1701131415.4,286046999.8,N
1701131435.3,286047000.6,N
1701131455.1,286046999.7,N
1701131475.8,286047000.5,N
1701131495.7,286047001.1,N
1701131515.5,286046998.4,N
1701131535.4,286046998.7,N
1701131555.2,286046998.6,N
1701131575.0,286046999.1,N
1701131575.9,286046999.1,N
1701131595.8,286047001.1,N
1701131615.6,286047001.2,N
1701131635.4,286046998.2,N
1701131655.3,286047001.1,N
1701131675.1,286047000.4,N
1701131695.9,286047002.4,N
1701131715.7,286047000.1,N
1701131735.5,286047000.2,N
1701131755.4,286046998.2,N
1701131775.5,286046999.2,N
1701131795.3,286046996.6,N
1701131815.2,286046997.1,N
1701131835.0,286046999.2,N
1701131835.9,286046999.2,N
1701131855.8,286046998.8,N
1701131875.6,286046999.1,N
1701131895.4,286046996.7,N
1701131915.3,286046996.8,N
1701131935.1,286046997.4,N
1701131955.9,286046997.5,N
1701131975.7,286046997.5,N
1701131995.5,286046997.7,N
1701132015.4,286046997.8,N
1701132035.2,286046999.6,N
1701132055.0,286046999.0,N
1701132055.9,286046999.0,N
1701132075.8,286046996.8,N
1701132095.6,286046996.9,N
1701132115.5,286046997.4,N
1701132135.3,286046997.3,N
1701132155.1,286046995.2,Y
1701132175.9,286046999.0,P
1701132195.7,286046998.4,P
1701132215.5,286046999.3,N
1701132235.4,286047000.8,N
1701132255.2,286046998.9,N
1701132275.1,286047000.3,N
1701132276.0,286047000.3,N
1701132295.8,286047000.2,N
1701132315.6,286046999.9,N
1701132335.5,286047000.4,N
1701132355.3,286047000.0,N
1701132375.1,286047001.6,N
1701132395.9,286047001.7,N
1701132415.7,286047001.4,N
1701132435.6,286047001.4,N
1701132455.4,286047002.5,N
1701132475.2,286047002.7,N
1701132495.1,286047000.2,N
1701132496.0,286047000.2,N
1701132515.8,286047000.1,N
1701132535.6,286047000.3,N
1701132555.5,286047000.1,N
1701132575.3,286046999.9,N
1701132595.2,286046999.8,N
1701132615.9,286047002.1,N
1701132635.7,286047002.7,N
1701132655.6,286047001.4,N
1701132675.4,286047002.5,N
1701132695.2,286047000.2,N
1701132715.1,286047000.1,N
1701132716.0,286047000.1,N
1701132735.8,286047000.2,N
1701132755.7,286046999.7,N
1701132775.5,286047000.0,N
1701132795.3,286047000.2,N
1701132815.2,286047000.2,N
1701132835.0,286047002.3,N
1701132835.9,286047002.3,N
1701132855.7,286047004.1,Y
1701132875.6,286047002.5,P
1701132895.4,286047002.5,P
1701132915.3,286047002.7,P
1701132935.1,286047001.9,N
1701132955.8,286047001.4,N
1701132975.7,286047004.0,Y
1701132995.5,286047000.0,P
1701133015.4,286047002.5,N
1701133035.2,286047002.6,N
1701133055.0,286046999.9,N
1701133055.9,286046999.9,N
1701133075.8,286046998.6,N
1701133095.6,286046998.6,N
1701133115.5,286047000.7,N
1701133135.3,286046998.5,N
1701133155.1,286046996.5,N
1701133175.9,286046996.5,N
1701133195.7,286046999.4,N
